Tracking 19246 objects as of 20-Aug-2018
HD Live streaming from Space Station
objects crossing your sky now

NOAA 16 DEB

Track NOAA 16 DEB now!
10-day predictions


NORAD ID: 41366
Int'l Code: 2000-055JK
Perigee: 852.9 km
Apogee: 918.8 km
Inclination: 99.0 °
Period: 102.5 minutes
Semi major axis: 7256 km
RCS: Unknown
Launch date: September 21, 2000
Source: United States (US)
Launch site: AIR FORCE WESTERN TEST RANGE (AFWTR)

Note: This is SATELLITE DEBRIS
aabbcc
Your satellite tracking list
Your tracking list is empty




NASA's NSSDC Master Catalog

Two Line Element Set (TLE):
1 41366U 00055JK  18231.42848165  .00000550  00000-0  36948-3 0  9996
2 41366  98.9836 300.6531 0045443  62.7088 297.8696 14.04370135129933
Source of the keplerian elements: AFSPC